Other Public Products
Issued by NWS Grand Forks, ND

Home | Current Version | Previous Version | Graphics & Text | Print | Product List | Glossary On
Versions: 1 2 3 4 5 6 7 8 9 10 11 12 13 14 15 16 17 18 19 20 21 22 23 24 25 26 27 28 29 30 31 32 33 34 35 36 37 38 39 40 41 42 43 44 45 46 47 48 49 50
000
FPUS83 KFGF 270510
OPUFGF
PRAIRIE TO PINES WEATHER ROUNDUP
NATIONAL WEATHER SERVICE EASTERN NORTH DAKOTA/GRAND FORKS ND
1100 PM CST WED NOV 26 2014

 **SATELLITE DATA USED TO AUGMENT SKY COVER AT AUTOMATED STATIONS**
 *****  WEATHER ACROSS EASTERN NORTH DAKOTA  *****

CITY           SKY/WX    TMP DP  RH WIND       PRES   REMARKS
GRAND FORKS    PTCLDY   -12 -17  78 N3        30.55S
GRAND FORKS AF PTCLDY   -13 -19  77 W3        30.55R
GRAND CITY NWS   N/A     -9 N/A N/A MISG        N/A
BUXTON         NOT AVBL
DEVILS LAKE    PTCLDY    -9 -24  49 CALM      30.46S
FARGO          PTCLDY    -9 -16  71 W7        30.55R WCI -24
WAHPETON ARPT  PTCLDY    -4  -9  77 N8        30.54R WCI -19
$$

 *****  WEATHER ACROSS CENTRAL AND WESTERN NORTH DAKOTA  *****

CITY           SKY/WX    TMP DP  RH WIND       PRES   REMARKS
JAMESTOWN      MOCLDY   -16 -22  74 W6        30.48S WCI -31
BISMARCK       PTCLDY    -7 -12  79 NE5       30.47S WCI -18
MINOT          CLOUDY   -15 -20  78 SW5       30.43F WCI -27
MINOT AFB      CLOUDY   -26 -30  81 SW3       30.44F
GARRISON         N/A     -2  -6  83 E6        30.42S WCI -14
WILLISTON      CLOUDY    10   5  80 SE7       30.36F WCI  -1
DICKINSON      MOCLDY    11   7  84 SE7       30.30F WCI   0
HETTINGER      CLOUDY    10   7  87 E8        30.33F WCI  -2
$$

 *****  OTHER OBSERVATIONS NORTHEAST NORTH DAKOTA  *****

CITY           SKY/WX    TMP DP  RH WIND       PRES   REMARKS
WALHALLA         N/A    -13 -18  77 SW3       30.54S
LANGDON        FAIR     -15 -20  76 W5        30.45S WCI -27
CAVALIER       FAIR     -13 -18  77 W5        30.54F WCI -25
GRAFTON        FAIR      -9 -15  77 CALM      30.56S
CANDO          FAIR     -13 -18  77 CALM      30.48F
FORT TOTTEN    NOT AVBL
ROLLA          FAIR     -11 -18  70 CALM      30.43F
RUGBY          FAIR     -13 -18  77 CALM      30.46S
 ***** THE ABOVE OBSERVATIONS ARE NON NWS ARE NOT QUALITY
        CONTROLLED AND MAY MIS-REPORT RAIN FOR SNOW...
$$

 *****  OTHER OBSERVATIONS SOUTHEAST NORTH DAKOTA *****

CITY           SKY/WX    TMP DP  RH WIND       PRES   REMARKS
COOPERSTOWN    NOT AVBL
VALLEY CITY    FAIR     -11 -17  77 NW6       30.50S WCI -25
OAKES            N/A     -9 -13  84 N6        30.50F WCI -23
GWINNER        CLEAR     -6 -13  71 N8        30.53R WCI -21
SHEYENNE NWR     N/A    -16 -24  68 W2        29.95S
BUFFALO        NOT AVBL
WYNDMERE         N/A     -9 -15  77 NW3         N/A
 ***** THE ABOVE OBSERVATIONS ARE NON NWS ARE NOT QUALITY
       CONTROLLED AND MAY MIS-REPORT RAIN FOR SNOW...
$$

  *****  WEATHER ACROSS NORTHERN MINNESOTA  *****

CITY           SKY/WX    TMP DP  RH WIND       PRES   REMARKS
FLAG ISLAND    PTCLDY   -11 -17  77 NW9       30.47S WCI -29
WARROAD        PTCLDY   -11 -17  77 CALM      30.48F
ROSEAU         PTCLDY    -9 -17  70 W3        30.50S
HALLOCK        PTCLDY   -11 -17  77 W3        30.54S
THF RVR FALLS  CLEAR     -8  -9  92 N6        30.49S WCI -21
HALSTAD          N/A    -11 -15  84 NW5         N/A  WCI -23
FOSSTON        FAIR     -15 -20  76 CALM      30.48R
BAUDETTE       PTCLDY    -9 -14  78 NW3       30.46R
WASKISH        CLEAR     -8 -11  84 NW7       30.45S WCI -22
CROOKSTON      CLEAR    -11 -17  77 NW3       30.55S
$$
  *****  WEATHER ACROSS CENTRAL AND WEST MINNESOTA  *****

CITY           SKY/WX    TMP DP  RH WIND       PRES   REMARKS
BEMIDJI        PTCLDY   -12 -16  82 NW6       30.44R WCI -26
PARK RAPIDS    CLEAR     -9 -13  83 NW7       30.42R WCI -24
WADENA         CLEAR     -6  -9  84 NW6       30.44R WCI -18
DETROIT LAKES  PTCLDY    -8  -9  92 N8        30.47R WCI -23
MOORHEAD       PTCLDY    -9 -11  92 NW6       30.55R WCI -23
FERGUS FALLS   PTCLDY    -6 -11  77 N8        30.54R WCI -21
ELBOW LAKE     FAIR      -4  -8  83 N9        30.48R WCI -20
MORRIS MN      CLEAR     -2  -8  78 N14       30.48R WCI -21
STAPLES        CLEAR     -6  -9  84 NW7       30.43R WCI -20
WHEATON        PTCLDY    -6  -9  84 NW9       30.54S WCI -22
$$
  *****  WEATHER ELSEWHERE ACROSS MINNESOTA  *****

CITY           SKY/WX    TMP DP  RH WIND       PRES   REMARKS
DULUTH         CLEAR      0  -7  72 N13       30.32S WCI -18
INTRNTL FALLS  CLEAR     -9 -13  83 NW7       30.42S WCI -24
ELY            CLEAR     -6  -9  84 NW5       30.35R WCI -17
CLOQUET        CLEAR      0  -8  71 NW10      30.36R WCI -17
BRAINERD       CLEAR      0  -8  69 N10       30.42R WCI -16
HIBBING        CLEAR     -3  -9  75 N10       30.38R WCI -20
ALEXANDRIA     CLEAR     -2  -8  76 NW13      30.44R WCI -20
SAINT CLOUD    CLEAR      6  -5  60 N10       30.41R WCI  -9
MINNEAPOLIS    MOCLDY    15   5  64 N14       30.37R WCI   0
$$

  *****  WEATHER ACROSS SOUTH DAKOTA  *****

CITY           SKY/WX    TMP DP  RH WIND       PRES   REMARKS
SIOUX FALLS    PTCLDY     6  -1  73 N12       30.45R WCI  -9
BROOKINGS      NOT AVBL
WATERTOWN      PTCLDY    -6 -11  79 N5        30.44R WCI -17
HURON          PTCLDY     0  -5  79 N7        30.50S WCI -13
SISSETON         N/A     -8 -12  83 N9        30.51R WCI -25
ABERDEEN       PTCLDY    -6 -11  79 N6        30.52R WCI -19
MITCHELL       CLOUDY     9   3  77 N9        30.50R WCI  -4
PIERRE         CLOUDY    13   8  81 E8        30.43S WCI   2
MOBRIDGE       PTCLDY     3  -2  79 E12       30.42S WCI -13
RAPID CITY     CLOUDY    25  23  92 NE7       30.27R WCI  17
$$

  *****  SOME WEATHER IN NEARBY STATES *****

CITY           SKY/WX    TMP DP  RH WIND       PRES   REMARKS
GLASGOW MT     CLOUDY    16  10  77 E21       30.23F WCI  -1
GREAT FALLS MT FOG       26  25  96 CALM      29.98F VSB 1/4
CHEYENNE WY    CLEAR     26  21  81 SW3       30.21S
SCOTTSBLUFF NE PTCLDY    21  19  92 E8        30.26S WCI  11
OMAHA NE       CLOUDY    23  17  78 N16       30.45R WCI  10
DES MOINES IA  FLURRIES  23  18  81 NW16      30.37R WCI  10
DAVENPORT IA   PTCLDY    22  17  81 N3        30.26R
CHICAGO IL     CLOUDY    27  21  78 NW10      30.17R WCI  17
EAU CLAIRE WI  FLURRIES  19  11  70 N10       30.29R WCI   7
LA CROSSE WI   CLOUDY    26  19  74 NW14      30.28R WCI  14
$$

  *****  SOME NATIONAL WEATHER *****

CITY           SKY/WX    TMP DP  RH WIND       PRES   REMARKS
LA GUARDIA NY  CLOUDY    36  32  85 N15       29.83R
RALEIGH NC     MOCLDY    36  34  92 CALM      30.06F
ATLANTA GA     CLOUDY    49  28  44 W6        30.06S
NEW ORLEANS LA CLEAR     56  48  74 W13       30.27R
OKLAHOMA CITY  PTCLDY    39  23  52 N6        30.42R
ALBUQUERQUE NM PTCLDY    49  23  36 NW5       30.41R
SALT LAKE CITY CLEAR     43  28  55 SE9       30.35S
LOS ANGELES CA CLEAR     65  51  60 SE3       30.14R
BOISE ID       CLOUDY    50  37  61 SE9       30.17F
SEATTLE WA     CLOUDY    55  52  89 S6        29.90F
$$

*** WEATHER ACROSS MANITOBA...SASKATCHEWAN AND ONTARIO ***
                ***ONTARIO***

CITY           SKY/WX    TMP DP  RH WIND       PRES   REMARKS
GERALDTON      CLEAR    -17 -22  76 NW3       30.31R
THUNDER BAY    CLEAR     -2  -9  71 NW12      30.38R WCI -20
SIOUX LOOKOUT  CLEAR    -11 -15  84 NW5       30.39R WCI -23
TORONTO        CLOUDY    32  23  69 NE5       30.07S
BIG TROUT LK   CLEAR    -18 -24  76 W8        30.36S WCI -37
PICKLE LAKE    NOT AVBL
DRYDEN         CLEAR    -11 -15  84 N2        30.40R
KENORA         CLEAR    -11 -15  84 NW8       30.43R WCI -28
$$
                *** MANITOBA***

CITY           SKY/WX    TMP DP  RH WIND       PRES   REMARKS
BRANDON        CLEAR    -15 -20  76 NW6       30.47F WCI -29
DAUPHIN        CLEAR    -11 -18  70 SW7       30.47S WCI -26
ISLAND LAKE    CLEAR    -15 -20  76 W6        30.42S WCI -29
PILOT MOUND      N/A    -15 -20  76 SW6         N/A  WCI -29
THE PAS        CLEAR    -13 -18  77 S3        30.39F
THOMPSON       CLEAR    -17 -24  70 SW3       30.33F
WINNIPEG       CLEAR    -13 -20  70 VRB2      30.53F
LYNN LAKE      PTCLDY   -13 -17  84 SW8       30.18F WCI -30
CHURCHILL      CLEAR     -4 -13  65 W18G24    30.11F WCI -26
GILLAM         CLEAR    -15 -20  76 SW9       30.30F WCI -33
$$
                ***SASKATCHEWAN***

CITY           SKY/WX    TMP DP  RH WIND       PRES   REMARKS
ESTEVAN        PTCLDY   -13 -18  77 E8        30.38F WCI -30
KINDERSLEY     MOCLDY     9   5  85 SE5       30.14F WCI   0
LLOYDMINSTER   CLOUDY    14  10  85 S13       30.11F WCI   0
PRINCE ALBERT  NOT AVBL
REGINA         FLURRIES   0  -4  85 SE12      30.31F WCI -18


USA.gov is the U.S. government's official web portal to all federal, state and local government web resources and services.